GW4085 Weather Reports


Display with metric or nautical units.
time (UTC)temp
F
wind
direction
speed
MPH
gust
MPH
rain 1hr
in
rain 24hr
in
rain mn
in
humidity
%
barometer
mb
20260504050346 64 173 1.0 7.0 0.00 0.00 0.00 65 1011.4
20260504045844 64 212 5.0 7.0 0.00 0.00 0.00 64 1011.4
20260504045343 63 196 4.0 7.0 0.00 0.00 0.00 65 1011.5
20260504044841 63 200 3.0 6.0 0.00 0.00 0.00 66 1011.7
20260504044338 62 186 1.0 3.0 0.00 0.00 0.00 67 1011.4
20260504043836 62 194 1.0 5.0 0.00 0.00 0.00 67 1011.7
20260504043332 62 181 1.0 2.0 0.00 0.00 0.00 68 1011.7
20260504042830 61 183 1.0 2.0 0.00 0.00 0.00 69 1011.5
20260504042326 61 174 1.0 2.0 0.00 0.00 0.00 69 1011.9
20260504041822 61 176 0.0 0.0 0.00 0.00 0.00 70 1012.0
20260504041318 62 170 0.0 1.0 0.00 0.00 0.00 69 1012.1
20260504040815 62 184 0.0 1.0 0.00 0.00 0.00 69 1012.1
20260504040312 62 171 0.0 1.0 0.00 0.00 0.00 69 1012.1
20260504035808 61 174 0.0 2.0 0.00 0.00 0.00 70 1012.0
20260504035305 60 175 0.0 0.0 0.00 0.00 0.00 72 1012.2
20260504034802 60 175 0.0 0.0 0.00 0.00 0.00 72 1012.2
20260504034300 61 175 0.0 0.0 0.00 0.00 0.00 72 1012.0
20260504033757 62 175 0.0 0.0 0.00 0.00 0.00 69 1012.2
20260504033255 62 174 0.0 0.0 0.00 0.00 0.00 68 1012.3
20260504032751 63 174 0.0 0.0 0.00 0.00 0.00 66 1012.4
20260504032248 64 174 0.0 0.0 0.00 0.00 0.00 64 1012.2
20260504031745 64 179 0.0 0.0 0.00 0.00 0.00 64 1012.5
20260504031243 64 197 2.0 2.0 0.00 0.00 0.00 64 1012.3
20260504030738 64 160 0.0 1.0 0.00 0.00 0.00 63 1012.1
20260504030236 64 178 0.0 0.0 0.00 0.00 0.00 64 1012.2
20260504025732 64 181 0.0 1.0 0.00 0.00 0.00 64 1012.4
20260504025229 64 177 0.0 1.0 0.00 0.00 0.00 64 1012.5
20260504024726 64 179 0.0 0.0 0.00 0.00 0.00 64 1012.2
20260504024222 64 182 0.0 1.0 0.00 0.00 0.00 63 1012.1
20260504023719 65 181 0.0 0.0 0.00 0.00 0.00 63 1012.2
20260504023215 65 172 0.0 0.0 0.00 0.00 0.00 62 1012.3
20260504022712 65 171 0.0 0.0 0.00 0.00 0.00 62 1012.0
20260504022208 65 172 0.0 0.0 0.00 0.00 0.00 63 1012.0
20260504021706 65 181 0.0 1.0 0.00 0.00 0.00 62 1012.2
20260504021202 65 184 0.0 1.0 0.00 0.00 0.00 62 1012.0
20260504020659 65 172 0.0 1.0 0.00 0.00 0.00 63 1012.2
20260504020155 65 179 0.0 1.0 0.00 0.00 0.00 63 1012.2
20260504015652 65 182 0.0 1.0 0.00 0.00 0.00 63 1012.0
20260504015148 65 182 0.0 0.0 0.00 0.00 0.00 63 1012.1
20260504014644 65 180 0.0 0.0 0.00 0.00 0.00 63 1012.0
20260504014141 65 176 0.0 0.0 0.00 0.00 0.00 62 1012.2
20260504013634 66 176 0.0 0.0 0.00 0.00 0.00 62 1012.1
20260504013131 67 176 0.0 0.0 0.00 0.00 0.00 59 1012.1
20260504012628 67 176 0.0 0.0 0.00 0.00 0.00 58 1012.1
20260504012126 67 180 0.0 1.0 0.00 0.00 0.00 58 1012.2
20260504011622 67 182 0.0 0.0 0.00 0.00 0.00 57 1011.9
20260504011119 68 176 0.0 0.0 0.00 0.00 0.00 58 1011.9
20260504010614 69 176 0.0 0.0 0.00 0.00 0.00 56 1011.9
20260504010111 70 176 0.0 0.0 0.00 0.00 0.00 54 1011.9
20260504005608 70 180 0.0 0.0 0.00 0.00 0.00 52 1012.2
20260504005104 71 198 0.0 0.0 0.00 0.00 0.00 52 1011.9
20260504004603 71 177 1.0 1.0 0.00 0.00 0.00 51 1012.0
20260504004059 71 177 1.0 1.0 0.00 0.00 0.00 51 1011.9
20260504003555 72 182 0.0 1.0 0.00 0.00 0.00 50 1011.9
20260504003052 72 172 1.0 2.0 0.00 0.00 0.00 49 1012.2
20260504002549 73 187 0.0 1.0 0.00 0.00 0.00 48 1012.2
20260504002047 73 184 0.0 3.0 0.00 0.00 0.00 47 1012.2
20260504001545 73 159 1.0 2.0 0.00 0.00 0.00 47 1012.0
20260504001040 74 162 1.0 2.0 0.00 0.00 0.00 47 1012.1
20260504000537 74 170 0.0 5.0 0.00 0.00 0.00 45 1012.2
20260504000035 75 172 2.0 5.0 0.00 0.00 0.00 45 1012.2
20260503235533 75 178 1.0 2.0 0.00 0.00 0.00 43 1012.1
20260503235030 75 169 2.0 5.0 0.00 0.00 0.00 43 1012.2
20260503234527 75 221 2.0 3.0 0.00 0.00 0.00 42 1012.2
20260503234026 75 185 1.0 6.0 0.00 0.00 0.00 40 1012.3
20260503233521 75 205 3.0 6.0 0.00 0.00 0.00 40 1012.2
20260503233018 76 177 2.0 7.0 0.00 0.00 0.00 39 1012.2
20260503232515 76 42 5.0 10.0 0.00 0.00 0.00 39 1012.5
20260503232012 77 216 2.0 8.0 0.00 0.00 0.00 38 1012.4
20260503231510 78 217 1.0 6.0 0.00 0.00 0.00 40 1012.4
20260503231006 78 184 3.0 8.0 0.00 0.00 0.00 40 1012.4
20260503230503 78 155 3.0 9.0 0.00 0.00 0.00 37 1012.3
20260503230000 78 233 1.0 5.0 0.00 0.00 0.00 39 1012.3
20260503225457 78 180 6.0 10.0 0.00 0.00 0.00 39 1012.3
20260503224952 78 175 6.0 10.0 0.00 0.00 0.00 38 1012.4
20260503224450 78 186 4.0 7.0 0.00 0.00 0.00 38 1012.4
20260503223948 78 186 3.0 10.0 0.00 0.00 0.00 38 1012.4
20260503223445 79 176 4.0 11.0 0.00 0.00 0.00 38 1012.4
20260503222941 78 152 4.0 6.0 0.00 0.00 0.00 39 1012.4
20260503222439 78 171 3.0 14.0 0.00 0.00 0.00 38 1012.5
20260503221937 79 171 4.0 8.0 0.00 0.00 0.00 39 1012.5
20260503221435 78 216 0.0 10.0 0.00 0.00 0.00 38 1012.8
20260503220932 78 129 7.0 13.0 0.00 0.00 0.00 38 1013.0
20260503220428 79 184 7.0 9.0 0.00 0.00 0.00 38 1013.0
20260503215925 78 132 6.0 14.0 0.00 0.00 0.00 39 1013.0
20260503215422 79 210 5.0 11.0 0.00 0.00 0.00 38 1013.0
20260503214920 78 4 7.0 10.0 0.00 0.00 0.00 38 1013.0
20260503214417 79 211 6.0 17.0 0.00 0.00 0.00 38 1013.0
20260503213914 80 159 4.0 16.0 0.00 0.00 0.00 38 1013.0
20260503213412 80 171 4.0 5.0 0.00 0.00 0.00 38 1013.0
20260503212908 79 167 6.0 10.0 0.00 0.00 0.00 37 1013.2
20260503212406 79 191 3.0 11.0 0.00 0.00 0.00 39 1013.1
20260503211904 79 171 5.0 9.0 0.00 0.00 0.00 37 1013.2
20260503211400 79 293 3.0 10.0 0.00 0.00 0.00 38 1013.4
20260503210855 79 190 4.0 7.0 0.00 0.00 0.00 37 1013.5
20260503210352 79 208 6.0 9.0 0.00 0.00 0.00 37 1013.6
20260503205847 79 175 7.0 8.0 0.00 0.00 0.00 36 1013.6
20260503205344 79 227 5.0 14.0 0.00 0.00 0.00 39 1013.8
20260503204841 80 284 5.0 10.0 0.00 0.00 0.00 38 1013.8
20260503204338 79 145 3.0 11.0 0.00 0.00 0.00 41 1013.9
20260503203835 79 150 3.0 7.0 0.00 0.00 0.00 40 1014.0
20260503203333 79 176 3.0 8.0 0.00 0.00 0.00 39 1014.1
20260503202829 79 173 3.0 7.0 0.00 0.00 0.00 41 1013.7
20260503202328 79 172 4.0 8.0 0.00 0.00 0.00 40 1014.1
20260503201826 79 181 6.0 8.0 0.00 0.00 0.00 41 1014.2
20260503201322 78 179 5.0 9.0 0.00 0.00 0.00 40 1014.3
20260503200820 79 177 7.0 14.0 0.00 0.00 0.00 41 1014.3
20260503200316 79 177 6.0 8.0 0.00 0.00 0.00 41 1014.6
20260503195813 78 158 3.0 9.0 0.00 0.00 0.00 44 1014.2
20260503195309 78 180 7.0 11.0 0.00 0.00 0.00 43 1014.7
20260503194807 78 213 1.0 7.0 0.00 0.00 0.00 43 1014.7
20260503194303 78 170 12.0 18.0 0.00 0.00 0.00 41 1014.7
20260503193759 77 141 4.0 15.0 0.00 0.00 0.00 45 1014.9
20260503193255 77 142 1.0 8.0 0.00 0.00 0.00 45 1014.9
20260503192751 77 328 3.0 9.0 0.00 0.00 0.00 44 1015.2
20260503192246 78 176 7.0 14.0 0.00 0.00 0.00 44 1015.2
20260503191743 77 170 5.0 9.0 0.00 0.00 0.00 46 1015.1
20260503191240 76 256 4.0 10.0 0.00 0.00 0.00 44 1015.2
20260503190737 76 200 5.0 7.0 0.00 0.00 0.00 48 1015.3
20260503190234 76 193 2.0 8.0 0.00 0.00 0.00 48 1015.4
20260503185731 76 160 11.0 15.0 0.00 0.00 0.00 47 1015.4
20260503185226 76 199 4.0 7.0 0.00 0.00 0.00 47 1015.5
20260503184721 75 190 6.0 13.0 0.00 0.00 0.00 47 1015.8
20260503184217 76 184 1.0 6.0 0.00 0.00 0.00 49 1015.6
20260503183714 75 209 5.0 8.0 0.00 0.00 0.00 46 1016.0
20260503183212 75 196 9.0 11.0 0.00 0.00 0.00 46 1015.9
20260503182709 75 172 7.0 8.0 0.00 0.00 0.00 47 1016.0
20260503182208 75 170 7.0 11.0 0.00 0.00 0.00 49 1016.1
20260503181703 75 102 6.0 9.0 0.00 0.00 0.00 49 1016.3
20260503181200 75 179 5.0 9.0 0.00 0.00 0.00 50 1016.4
20260503180657 75 237 2.0 7.0 0.00 0.00 0.00 49 1016.4
20260503180156 75 184 5.0 8.0 0.00 0.00 0.00 47 1016.5
20260503175652 74 183 1.0 9.0 0.00 0.00 0.00 52 1016.4
20260503175149 73 196 5.0 10.0 0.00 0.00 0.00 51 1016.5
20260503174645 73 182 8.0 11.0 0.00 0.00 0.00 49 1016.8
20260503174143 74 199 3.0 5.0 0.00 0.00 0.00 53 1016.7
20260503173638 73 173 1.0 9.0 0.00 0.00 0.00 55 1016.9
20260503173135 73 189 6.0 8.0 0.00 0.00 0.00 54 1017.5
20260503172632 73 199 3.0 7.0 0.00 0.00 0.00 52 1017.1
20260503172129 71 194 2.0 10.0 0.00 0.00 0.00 57 1017.3
20260503171620 71 211 6.0 7.0 0.00 0.00 0.00 53 1017.3
20260503171118 71 238 5.0 9.0 0.00 0.00 0.00 57 1017.5
20260503170615 71 187 6.0 9.0 0.00 0.00 0.00 55 1017.6
20260503170111 70 250 5.0 7.0 0.00 0.00 0.00 55 1017.3
20260503151000 61 168 9.0 11.0 0.00 0.00 0.00 60 1018.4
20260503150457 61 179 4.0 6.0 0.00 0.00 0.00 62 1018.4
20260503131344 50 193 4.0 7.0 0.00 0.00 0.00 74 1019.5
20260503130841 50 169 2.0 5.0 0.00 0.00 0.00 77 1019.2
20260503130339 49 193 3.0 5.0 0.00 0.00 0.00 79 1019.4
20260503110738 42 182 0.0 0.0 0.00 0.00 0.00 88 1019.0
20260503110235 42 236 0.0 0.0 0.00 0.00 0.00 89 1019.1
20260503100201 38 173 0.0 0.0 0.00 0.00 0.00 97 1019.1
20260503090120 37 173 0.0 0.0 0.00 0.00 0.00 97 1019.3
20260503081551 38 173 0.0 0.0 0.00 0.00 0.00 97 1019.6
20260503081048 38 173 0.0 0.0 0.00 0.00 0.00 97 1019.6
20260503080544 38 173 0.0 0.0 0.00 0.00 0.00 97 1019.6
20260503072517 39 173 0.0 0.0 0.00 0.00 0.00 96 1019.8